Hourly Data Report for April 17, 2020

CLYDE RIVER A
NUNAVUT
Current Station Operator: NAVCAN

70°29'09.000" N
68°31'01.000" W
26.50 m
2400804
71090
YCY

Download Data

Hourly Data (April 2020)
Hourly Data Report for April 17, 2020
TIME
LST
Temp Definition
°C
Dew Point Definition
°C
Rel Hum Definition
%
Precip. Amount Definition
mm

Wind Dir Definition
10's deg

Wind Spd Definition
km/h
Visibility Definition
km
Stn Press Definition
kPa
Hmdx Definition


Wind Chill Definition


Weather Definition


00:00 -19.0 -20.8 86 0.0 30 22 16.1 98.24   -30 LegendNANA
01:00 -18.6 -20.5 85 0.0 31 21 16.1 98.21   -29 Snow
02:00 -18.0 -19.9 85 0.0 30 30 16.1 98.15   -30 LegendNANA
03:00 -16.6 -18.3 87 0.0 30 22 16.1 98.14   -27 Snow
04:00 -15.5 -17.5 85 0.0 30 22 16.1 98.11   -25 Snow
05:00 -15.0 -16.7 87 0.0 31 30 4.8 98.09   -26 Snow
06:00 -14.6 -16.3 87 0.0 31 32 8.1 98.04   -26 Snow
07:00 -14.4 -16.4 85 0.0 30 26 16.1 98.02   -25 Snow
08:00 -13.7 -15.7 85 0.0 31 32 8.1 97.97   -25 Snow
09:00 -13.1 -15.3 84 0.0 31 37 4.8 97.95   -25 Snow
10:00 -12.8 -15.0 84 0.0 31 35 12.9 97.92   -24 Snow
11:00 -12.5 -14.5 85 0.0 31 37 9.7 97.87   -24 Snow
12:00 -12.2 -14.5 83 0.0 32 37 12.9 97.86   -23 LegendNANA
13:00 -11.8 -14.0 84 0.0 30 32 16.1 97.89   -22 Snow
14:00 -11.6 -13.8 84 0.0 31 37 16.1 97.85   -23 Snow
15:00 -11.9 -14.1 84 0.0 32 32 16.1 97.83   -22 LegendNANA
16:00 -12.3 -14.5 84 0.0 31 28 16.1 97.86   -22 LegendNANA
17:00 -12.5 -14.9 83 0.0 30 21 16.1 97.87   -21 LegendNANA
18:00 -13.9 -16.1 84 0.0 28 18 16.1 97.90   -22 LegendNANA
19:00 -14.7 -16.8 84 0.0 29 22 16.1 97.90   -24 LegendNANA
20:00 -14.3 -16.6 83 0.0 30 26 16.1 97.90   -24 LegendNANA
21:00 -13.8 -16.0 84 0.0 30 24 16.1 97.88   -23 Snow
22:00 -12.7 -15.0 83 0.0 30 28 16.1 97.84   -23 Snow
23:00 -12.4 -14.4 85 0.0 30 26 16.1 97.81   -22 Snow

Notes on Data Quality.

Legend

  • E = Estimated
  • M = Missing
  • NA = Not Available*
  • [empty] = Indicates an unobserved value
Date modified: